Regional Weather Roundup
Issued by NWS San Diego, CA

Home | Current Version | Previous Version | Text Only | Print | Product List | Glossary On
Versions: 1 2 3 4 5 6 7 8 9 10 11 12 13 14 15 16 17 18 19 20 21 22 23 24 25 26 27 28 29 30 31 32 33 34 35 36 37 38 39 40 41 42 43 44 45 46 47 48 49 50
000
ASUS46 KSGX 051711
RWRSGX

SAN DIEGO HOURLY WEATHER ROUNDUP
NATIONAL WEATHER SERVICE SAN DIEGO CA
1000 AM PDT SUN JUL 05 2015

NOTE: "FAIR" INDICATES FEW OR NO CLOUDS BELOW 12,000 FEET WITH NO
SIGNIFICANT WEATHER AND/OR OBSTRUCTIONS TO VISIBILITY.

CAZ042-043-060-061-PZZ750-775-051800-

GREATER SAN DIEGO AREA

CITY           SKY/WX    TMP DP  RH WIND       PRES   REMARKS
LINDBERGH FLD  CLOUDY    69  59  70 VRB5      30.01S
POINT LOMA       N/A     66  60  80 NW9         N/A
NATIONAL CITY    N/A     69  61  75 W2        30.00S
CHULA VISTA      N/A     68  61  78 W5        29.93S
IMPERIAL BEACH CLOUDY    68  59  73 W6        30.00S
BROWN FIELD    CLOUDY    67  60  78 CALM      30.00S
MIRAMAR MCAS   CLOUDY    70  58  65 CALM      30.00S
MONTGOMERY FLD CLOUDY    68  59  73 CALM      30.00S

$$

NORTH SAN DIEGO COUNTY

CITY           SKY/WX    TMP DP  RH WIND       PRES   REMARKS
CAMP PENDLETON CLOUDY    69  61  75 S6        29.99S
OCEANSIDE AP   CLOUDY    67  63  87 SW7       29.98F
OCEANSIDE HBR    N/A     67  64  90 W2        30.01S
VISTA            N/A     65  60  82 CALM      29.97S
CARLSBAD       CLOUDY    65  63  93 SW5       29.99S FOG
DEL MAR          N/A     67  63  86 CALM      30.02S
LA JOLLA SCRIP   N/A    N/A N/A N/A W5        29.97S
FALLBROOK        N/A     66  65  97 S5        30.00R
ESCONDIDO        N/A     67  62  84 SW3       30.00S
SAN MARCOS       N/A     65  61  86 CALM      29.97S
POWAY            N/A     66  61  84 CALM      30.00S

$$

EAST SAN DIEGO COUNTY

CITY           SKY/WX    TMP DP  RH WIND       PRES   REMARKS
RAMONA         CLOUDY    66  58  75 CALM      30.01S
JAMUL            N/A     65  61  87 CALM      29.98S
DESCANSO N       N/A     72  59  62 SW8       29.81S
CAMPO            N/A     72  59  63 SW13      29.98R

$$

ORANGE COUNTY AND THE LOS ANGELES BASIN

CITY           SKY/WX    TMP DP  RH WIND       PRES   REMARKS
JOHN WAYNE AP  CLOUDY    67  59  75 VRB3      29.99S
LAKE FOREST FR   N/A     65  58  76 CALM      29.89S
SANTA ANA        N/A     68  62  79 CALM      29.94S
HUNTINGTON BCH   N/A     67  63  86 SW5       30.01S
LOS ALAMITOS   CLOUDY    67  62  82 SW7       29.99S
FULLERTON      CLOUDY    69  59  70 S5        29.98S
LONG BEACH     CLOUDY    69  60  73 VRB3      29.98F
L.A. AP        CLOUDY    65  60  84 W5        29.99S
L.A. DOWNTOWN  CLOUDY    68  59  73 CALM      29.98S

$$

THE INLAND EMPIRE

CITY           SKY/WX    TMP DP  RH WIND       PRES   REMARKS
CORONA         CLOUDY    68  60  75 CALM      30.00S
CHINO          CLOUDY    69  60  73 NW3       30.00S HAZE
ONTARIO        CLOUDY    67  59  75 CALM      29.99S HAZE
SAN BERNARDINO CLOUDY    66  57  72 SW3       30.00S HAZE
RIVERSIDE AP   CLOUDY    68  59  73 CALM      29.99S HAZE
MORENO VALLEY    N/A     71  64  78 S3        29.95S
MARCH ARB      MOSUNNY   69  60  71 VRB6      30.00S
HORSETHIEF CYN   N/A     70  58  65 NW3       29.99S
PERRIS           N/A     71  62  72 SE2         N/A
MENIFEE          N/A     70  63  77 SE5       30.05S
HEMET EAST       N/A     68  58  69 CALM      29.96R
FRENCH VALLEY  CLOUDY    64  59  82 S6        30.01S
TEMECULA         N/A     66  62  88 SW3       29.96S

$$

SAN BERNARDINO AND RIVERSIDE COUNTY MOUNTAINS

CITY           SKY/WX    TMP DP  RH WIND       PRES   REMARKS
BIG BEAR AP    MOSUNNY   73  43  33 E7        30.26F
ANGELUS OAKS     N/A     76  50  40 CALM      29.74S
PINE COVE        N/A     77  49  36 W3        29.83R

$$

SOUTHERN DESERT INCLUDING THE COACHELLA VALLEY

CITY           SKY/WX    TMP DP  RH WIND       PRES   REMARKS
PALM SPRINGS   MOSUNNY   93  59  31 VRB7      29.87S
THOUSAND PALMS   N/A     92  60  33 SE3       29.82S
PALM DESERT      N/A     95  63  34 SE3         N/A  HX  96
THERMAL        SUNNY     93  69  45 VRB7      29.81S HX  98
BLYTHE         SUNNY     95  60  31 S13       29.85S HX  95
IMPERIAL AP    SUNNY     91  72  53 CALM      29.81S HX  98
EL CENTRO NAS  SUNNY     92  70  48 SE5       29.83F HX  97
YUMA AZ        SUNNY     96  70  42 S17       29.85S HX 102
MEXICALI       SUNNY     91  68  46 SE12      29.83S HX  95

$$

UPPER DESERT

CITY           SKY/WX    TMP DP  RH WIND       PRES   REMARKS
VICTORVILLE AP SUNNY     88  37  16 CALM      29.98F
HESPERIA         N/A     90  46  21 S2        29.91F
APPLE VALLEY     N/A     91  40  16 CALM      30.02F
PALMDALE       SUNNY     89  37  16 VRB5      29.96F
LANCASTER      SUNNY     91  44  19 W10       29.95F
EDWARDS AFB    MOSUNNY   87  50  27 VRB3      29.93F
DAGGETT        SUNNY     93  41  16 W13       29.91F
29 PALMS N     SUNNY     93  44  18 E6        29.98F
NEEDLES        SUNNY    102  46  15 SW16      29.85F HX  98

$$

REGIONAL REPORTS

CITY           SKY/WX    TMP DP  RH WIND       PRES   REMARKS
SANTA BARBARA  CLOUDY    65  58  78 VRB3      29.99S
SANDBERG       SUNNY     79  50  36 SW10      30.11S
LAS VEGAS NV   MOSUNNY   96  45  17 SW6       29.87F
PHOENIX AZ     PTSUNNY   96  60  30 VRB5      29.91S HX  96
TIJUANA        CLOUDY    66  55  68 CALM      30.03R
ENSENADA NW      N/A     65  32  28 NW7       29.97S

$$

OFFSHORE ISLANDS

CITY           SKY/WX    TMP DP  RH WIND       PRES   REMARKS
CATALINA ARPT  FOG       58  57  97 W7        30.02S VSB 1/4
SAN NICOLAS IS CLOUDY   N/A N/A N/A W9        30.00S

$$

MARINE AND OFFSHORE BUOY REPORTS

STATION/POSITION SKY/WX   TEMP    WIND        PRES    SWELL
                          AIR SEA DIR/SP/G            HT/PER/DIR
                          (F)     (DEG/KT/KT) (MB)    (FT/S/D)
TANNER BANKS               63 63  290/  4/  6 1016.3R   3/180/16
S CLEMENTE BASIN           64 68  320/  8/ 10 1016.1R   3/240/14
SAN NICOLAS IS.               63                N/A     3/190/15
SO. S. ROSA ISLA           62 65  290/ 10/ 12 1015.1S   3/16
W. S. BARBARA CH           60 60  320/  6/  8 1015.5S   2/230/14
M. S. BARBARA CH           62 62  350/  8/ 10 1016.1R
S. MONICA BASIN            63 68  350/  6/  8 1015.7R   2/210/14
S PEDRO CHANNEL               66                N/A     2/170/17
DANA POINT                    69                N/A     2/190/15
OCEANSIDE OFFSHR              69                N/A     2/200/14
TORREY PINES OTR              70                N/A     2/200/17
LA JOLLA 1                 67 67   50/  2/  4 1015.7R
MISSION BAY BUOY              70                N/A     2/210/13
SAN DIEGO BAY                 71              1016.3R
POINT LOMA SOUTH              69                N/A     2/200/17

$$




USA.gov is the U.S. government's official web portal to all federal, state and local government web resources and services.